This is the latest recevied weather packets stored in our database for station/object N4PWG. If no packets are shown the sender has not sent any weather packets the latest 10 day(s).
| Time | Temp. | Humidity | Pressure | Rain* | Wind** | Luminosity | Snow |
|---|---|---|---|---|---|---|---|
| 1777924567 | 28.33° C | 41% | 1026.2 hPa | 0 mm | - | 626 W/m² | - |
| 1777924263 | 28.33° C | 40% | 1026.5 hPa | 0 mm | - | 634 W/m² | - |
| 1777923960 | 28.33° C | 42% | 1026.5 hPa | 0 mm | - | 622 W/m² | - |
| 1777923655 | 28.33° C | 43% | 1026.6 hPa | 0 mm | - | 633 W/m² | - |
| 1777923352 | 28.33° C | 43% | 1026.7 hPa | 0 mm | - | 651 W/m² | - |
| 1777923051 | 27.78° C | 41% | 1026.6 hPa | 0 mm | - | 654 W/m² | - |
| 1777922749 | 27.78° C | 41% | 1027 hPa | 0 mm | - | 649 W/m² | - |
| 1777922446 | 28.33° C | 40% | 1026.9 hPa | 0 mm | - | 668 W/m² | - |
| 1777922144 | 28.33° C | 43% | 1026.9 hPa | 0 mm | - | 674 W/m² | - |
| 1777921840 | 27.78° C | 42% | 1026.9 hPa | 0 mm | - | 709 W/m² | - |
| 1777921536 | 27.78° C | 42% | 1026.9 hPa | 0 mm | - | 709 W/m² | - |
| 1777921232 | 28.33° C | 42% | 1026.9 hPa | 0 mm | - | 730 W/m² | - |
| 1777920930 | 28.33° C | 42% | 1027 hPa | 0 mm | - | 718 W/m² | - |
| 1777920626 | 27.78° C | 43% | 1026.9 hPa | 0 mm | - | 714 W/m² | - |
| 1777920321 | 27.78° C | 43% | 1027.2 hPa | 0 mm | - | 723 W/m² | - |
| 1777920017 | 27.78° C | 43% | 1027.3 hPa | 0 mm | - | 724 W/m² | - |
| 1777919715 | 27.78° C | 42% | 1027.3 hPa | 0 mm | - | 692 W/m² | - |
| 1777919413 | 27.78° C | 43% | 1027.2 hPa | 0 mm | - | 695 W/m² | - |
| 1777919109 | 27.78° C | 43% | 1027.5 hPa | 0 mm | - | 721 W/m² | - |
| 1777918807 | 27.78° C | 43% | 1027.5 hPa | 0 mm | - | 727 W/m² | - |
| 1777918504 | 27.78° C | 44% | 1027.6 hPa | 0 mm | - | 724 W/m² | - |
| 1777918202 | 27.22° C | 43% | 1027.5 hPa | 0 mm | - | 723 W/m² | - |
| 1777917901 | 27.22° C | 43% | 1027.6 hPa | 0 mm | - | 735 W/m² | - |
| 1777917599 | 27.22° C | 45% | 1027.8 hPa | 0 mm | - | 711 W/m² | - |
| 1777917295 | 27.22° C | 44% | 1027.7 hPa | 0 mm | - | 710 W/m² | - |
* Rain latest hour (hover to see other rain measurements)
** Current wind speed in m/s (hover to see current wind gust speed)